Retour au catalogue

STARLINK-4205

ActifCommunicationsVLEO
NORAD 53174·PAYLOAD·🇺🇸 United States

Lancé Jul 17, 2022 depuis Cape Canaveral Space Force Station

Loading…

Prochains Passages (prochaines 24 heures)

TLE

FraisSource: CelesTrak SupGP

Époque: Sep 14, 2026, 21:56 UTC

1 53174C 22083AU  26257.91437500 -.00002171  00000+0 -69815-4 0  2578
2 53174  53.1582  29.9456 0001134  85.2196 165.1963 15.31703163    13

Suivez STARLINK-4205 en temps réel avec AllMySat

Download on the App Store